Location: Blangy-Tronville
(49.8790°N, 2.4226°E)
Time: 01:50:40
(UTC+00:00)

Tsikada Rocket - Pass Details

Date: 18 November 2025
Orbit: 958 x 1007 km, 82.9° (Epoch: 04 December)

Event Time Altitude Azimuth Distance (km) Brightness Sun altitude
Rises 16:26:00 0° 351° (N) 3,751 6.9 -4.1°
Reaches altitude 10° 16:28:35 10° 355° (N) 2,795 6.2 -4.5°
Maximum altitude 16:34:59 66° 78° (ENE) 1,088 4.1 -5.5°
Drops below altitude 10° 16:41:17 10° 160° (SSE) 2,753 6.4 -6.4°
Sets 16:43:49 0° 163° (SSE) 3,691 7.1 -6.8°
